Terminal Aerodrome Forecast
Issued by NWS Milwaukee/Sullivan, WI

Home | Current Version | Previous Version | Text Only | Print | Product List | Glossary On
Versions: 1 2 3 4 5 6 7 8 9 10 11 12 13 14 15 16 17 18 19 20 21 22 23 24 25 26 27 28 29 30 31 32 33 34 35 36 37 38 39 40 41 42 43 44 45 46 47 48 49 50
000
FTUS43 KMKX 201409 AAA
TAFMKE
TAF AMD
KMKE 201409Z 2014/2118 28006KT P6SM FEW250
     FM201700 16006KT P6SM SCT030
     FM202000 12007KT P6SM SCT040
     FM210600 VRB03KT P6SM BKN050
     FM210800 14004KT 5SM TSRA BR BKN050CB
     FM211200 14005KT P6SM VCTS BKN050CB=

USA.gov is the U.S. government's official web portal to all federal, state and local government web resources and services.